Location: Worth Mountain WMA
(34.9569°N, 81.4819°W)
Time: 08:00:58
(UTC-05:00)

Amateur Radio Satellites - All Passes

Search period start: 17 January 2017 07:30
Search period end: 18 January 2017 07:30
Location: Worth Mountain WMA, 34.9569°N, 81.4819°W

Satellite Date Start Highest point End Downlink Frequencies (MHz)
Time Altitude Azimuth
SO-50 17 Jan 07:32:14 07:34:06 12° 107° (ESE) 07:35:56 436.795
LilacSat-2 17 Jan 07:34:00 07:36:34 17° 290° (WNW) 07:39:08 437.200
PHONESAT 2.4 17 Jan 07:35:48 07:37:59 35° 16° (NNE) 07:40:10 2401.200-2431.200
CUTE-I 17 Jan 07:35:59 07:40:44 34° 290° (WNW) 07:45:29 437.470
COMPASS 1 17 Jan 07:40:37 07:43:14 16° 93° (E) 07:45:51 437.405
ISS 17 Jan 07:40:58 07:43:46 27° 229° (SW) 07:46:35 145.825
UWE-3 17 Jan 07:48:29 07:49:55 11° 92° (E) 07:51:22 435.000/436.395/437.385
NOAA 18 17 Jan 07:51:05 07:56:18 48° 288° (WNW) 08:01:30 137.9125
AAUSAT CUBESAT 2 17 Jan 07:55:36 07:58:30 18° 94° (E) 08:01:23 437.432
CUTE 1.7 + AOD 2 17 Jan 08:14:36 08:18:54 77° 282° (WNW) 08:23:10 437.475
STRAND 1 17 Jan 08:14:46 08:18:13 18° 266° (W) 08:21:41 437.568
ZACube-1 17 Jan 08:15:04 08:17:23 14° 93° (E) 08:19:44 437.345
Cubesat XI-IV 17 Jan 08:19:35 08:22:18 14° 297° (WNW) 08:25:01 437.490
PRISM 17 Jan 08:28:58 08:32:40 32° 72° (ENE) 08:36:24 437.425
O/OREOS (USA 219) 17 Jan 08:30:56 08:33:29 15° 301° (WNW) 08:36:02 437.305
HO-68 17 Jan 08:42:06 08:49:11 64° 289° (WNW) 08:56:14 435.675
CANX-2 17 Jan 08:43:29 08:47:13 29° 288° (WNW) 08:50:56 2200.000
CUBEBUG 2 17 Jan 08:45:53 08:50:12 85° 281° (W) 08:54:39 437.445
Cosmos 2499 17 Jan 08:55:03 09:00:46 27° 275° (W) 09:06:25 435.465 / 435.565
Oscar 11 17 Jan 08:57:09 09:01:11 36° 98° (E) 09:05:11 145.826/435.025
SEEDS 17 Jan 09:02:28 09:06:14 31° 288° (WNW) 09:09:57 437.485
CINEMA 3 17 Jan 09:05:25 09:06:43 11° 293° (WNW) 09:08:03 145.822/145.860
SO-50 17 Jan 09:09:20 09:14:02 62° 301° (WNW) 09:18:40 436.795
PHONESAT 2.4 17 Jan 09:10:06 09:12:08 26° 210° (SSW) 09:14:10 2401.200-2431.200
COMPASS 1 17 Jan 09:15:03 09:18:50 33° 288° (WNW) 09:22:36 437.405
UNISAT 6 17 Jan 09:20:10 09:24:01 34° 73° (ENE) 09:27:52 437.425
UWE-3 17 Jan 09:22:21 09:26:34 51° 285° (WNW) 09:30:53 435.000/436.395/437.385
GONETS M04 17 Jan 09:25:01 09:31:55 27° 277° (W) 09:38:50
RS-15 17 Jan 09:28:27 09:40:48 69° 58° (ENE) 09:52:34 29.354- 29.394
FUNcube-1 17 Jan 09:28:33 09:32:56 83° 282° (WNW) 09:37:23 145.935
AAUSAT CUBESAT 2 17 Jan 09:30:19 09:33:58 29° 288° (WNW) 09:37:34 437.432
TIGRISAT 17 Jan 09:34:26 09:38:32 46° 74° (ENE) 09:42:36 435.000
DELFI C3 17 Jan 09:44:41 09:48:29 40° 99° (E) 09:52:13 145.870
JAS-2 17 Jan 09:48:23 09:52:25 23° 65° (ENE) 09:56:41 435.910
ANTELSAT 17 Jan 09:48:30 09:52:47 76° 76° (ENE) 09:57:02 437.575/2403.000
ZACube-1 17 Jan 09:49:40 09:53:47 42° 286° (WNW) 09:57:59 437.345
PRISM 17 Jan 10:05:19 10:08:00 17° 265° (W) 10:10:41 437.425
POPSAT HIP 1 17 Jan 10:25:12 10:27:43 16° 68° (ENE) 10:30:15 437.405
HUMSAT D 17 Jan 10:32:59 10:37:17 87° 102° (ESE) 10:41:35 437.325/437.525
Oscar 11 17 Jan 10:34:13 10:36:59 17° 292° (WNW) 10:39:45 145.826/435.025
DUCHIFAT 1 17 Jan 10:40:04 10:43:07 20° 69° (ENE) 10:46:11 145.980
NANOSAT C BR1 17 Jan 10:43:17 10:46:40 24° 70° (ENE) 10:50:03 145.865
UNISAT 6 17 Jan 10:58:08 11:00:48 16° 266° (W) 11:03:29 437.425
PCSat 17 Jan 10:58:57 11:04:19 58° 61° (ENE) 11:09:38 145.827
TIGRISAT 17 Jan 11:13:57 11:15:25 12° 267° (W) 11:16:54 435.000
DELFI C3 17 Jan 11:21:09 11:22:53 13° 293° (WNW) 11:24:35 145.870
BUGSAT 1 17 Jan 11:29:08 11:32:31 25° 71° (ENE) 11:35:52 437.445
QB50P1 17 Jan 11:32:22 11:36:33 76° 258° (WSW) 11:40:45 145.935-145.965
JAS-2 17 Jan 11:32:31 11:37:15 36° 263° (W) 11:42:18 435.910
BY70-1 17 Jan 11:33:34 11:36:56 59° 284° (WNW) 11:40:05 436.1900
POLYITAN 1 17 Jan 11:35:22 11:39:32 69° 259° (WSW) 11:43:43 437.675
QB50P2 17 Jan 11:36:30 11:40:39 61° 259° (W) 11:44:49 145.880/145.840
RS-15 17 Jan 11:42:19 11:52:12 31° 257° (WSW) 12:01:48 29.354- 29.394
CUBEBUG 1 17 Jan 11:49:04 11:53:08 39° 99° (E) 11:57:10 437.445
SPROUT 17 Jan 11:50:06 11:52:51 17° 94° (E) 11:55:36 437.525
AISAT 17 Jan 11:56:06 11:59:56 29° 97° (E) 12:03:46 437.250
POPSAT HIP 1 17 Jan 11:59:19 12:03:11 35° 262° (W) 12:07:03 437.405
ESTCUBE 1 17 Jan 12:02:25 12:06:59 79° 283° (WNW) 12:11:28 437.505/2401.250
DUCHIFAT 1 17 Jan 12:15:04 12:18:36 27° 263° (W) 12:22:09 145.980
NANOSAT C BR1 17 Jan 12:19:00 12:22:17 22° 264° (W) 12:25:35 145.865
Gurwin Techsat 1B 17 Jan 12:22:32 12:25:33 16° 64° (ENE) 12:28:35 435.225
VELOX 1 17 Jan 12:29:17 12:33:41 71° 102° (ESE) 12:38:02 145.980
Oscar 19 17 Jan 12:34:50 12:39:37 39° 71° (ENE) 12:44:26 437.125/150
PCSat 17 Jan 12:44:01 12:47:09 16° 256° (WSW) 12:50:17 145.827
BUGSAT 1 17 Jan 13:04:46 13:07:48 20° 264° (W) 13:10:50 437.445
50 SAT 17 Jan 13:05:38 13:09:01 41° 286° (WNW) 13:12:22 437.505
DX 1 17 Jan 13:13:15 13:17:35 77° 285° (WNW) 13:21:54 434.975-435.025
UKube-1 17 Jan 13:19:27 13:23:47 89° 101° (ESE) 13:28:04 .
CUSAT 1 17 Jan 13:19:27 13:23:56 16° 65° (ENE) 13:28:17 437.405
SPROUT 17 Jan 13:25:01 13:28:49 33° 288° (WNW) 13:32:36 437.525
CUBEBUG 1 17 Jan 13:26:33 13:29:03 15° 293° (WNW) 13:31:33 437.445
TISAT 1 17 Jan 13:29:48 13:33:32 31° 98° (E) 13:37:15 437.305
AISAT 17 Jan 13:32:57 13:36:11 20° 292° (WNW) 13:39:24 437.250
Cosmos 2491 17 Jan 13:37:46 13:46:23 57° 80° (E) 13:54:59 435.465 / 435.565
YUBILEINY 17 Jan 13:42:36 13:49:38 28° 84° (E) 13:56:42 435.215
AIST 1 17 Jan 13:50:58 13:54:28 24° 89° (E) 13:57:57
Gurwin Techsat 1B 17 Jan 13:59:44 14:04:57 59° 259° (W) 14:10:12 435.225
BEESAT 17 Jan 14:06:32 14:09:19 15° 94° (E) 14:12:07 436.000
SWISSCUBE 17 Jan 14:07:23 14:10:39 18° 94° (E) 14:13:54 437.505
AO-7 17 Jan 14:10:24 14:17:48 37° 63° (ENE) 14:25:15 29.400- 29.500
Oscar 19 17 Jan 14:15:08 14:19:00 21° 265° (W) 14:22:54 437.125/150
JUGNU 17 Jan 14:41:36 14:43:15 11° 165° (SSE) 14:44:53 437.505
ITAMSAT 1 17 Jan 14:48:48 14:53:58 81° 75° (ENE) 14:59:09 435.822/435.867
AO-85 17 Jan 14:52:22 14:57:13 81° 299° (WNW) 15:01:43 145.980
CUSAT 1 17 Jan 14:58:53 15:06:56 84° 83° (E) 15:14:24 437.405
ITUPSAT 1 17 Jan 15:05:31 15:10:20 69° 102° (ESE) 15:15:07 437.325
TISAT 1 17 Jan 15:06:07 15:08:54 17° 292° (WNW) 15:11:39 437.305
Cosmos 2504 17 Jan 15:09:44 15:18:18 58° 91° (E) 15:26:28 435.465 / 435.565
DANDE 17 Jan 15:13:54 15:21:12 44° 77° (ENE) 15:29:02 436.750
BRITE-PL 17 Jan 15:15:28 15:17:52 13° 63° (ENE) 15:20:15 437.365/2234.400
AIST 1 17 Jan 15:28:27 15:31:56 23° 284° (WNW) 15:35:25
Cosmos 2491 17 Jan 15:35:41 15:42:35 27° 277° (W) 15:49:31 435.465 / 435.565
YUBILEINY 17 Jan 15:37:16 15:45:49 55° 281° (W) 15:54:29 435.215
KKS-1 17 Jan 15:38:23 15:40:01 12° 93° (E) 15:41:40 437.445
BEESAT 17 Jan 15:42:43 15:47:16 46° 288° (WNW) 15:51:50 436.000
SWISSCUBE 17 Jan 15:44:04 15:48:32 39° 288° (WNW) 15:52:58 437.505
AO-7 17 Jan 16:02:27 16:10:19 45° 259° (W) 16:18:16 29.400- 29.500
M-CUBED/EXP-1 PRIME 17 Jan 16:06:42 16:09:39 28° 102° (ESE) 16:12:31 437.505
MOZHAYETS 4 17 Jan 16:08:09 16:12:49 82° 283° (WNW) 16:17:28
JUGNU 17 Jan 16:27:42 16:31:29 17° 175° (S) 16:35:17 437.505
BEESAT 3 17 Jan 16:31:20 16:34:36 26° 112° (ESE) 16:37:54 437.485
DOVE 4 17 Jan 16:35:26 16:35:51 10° 65° (ENE) 16:36:16 437.250
STARS 17 Jan 16:39:16 16:42:58 27° 97° (E) 16:46:38 437.465
NOAA 15 17 Jan 16:40:17 16:43:10 15° 63° (ENE) 16:46:02 137.62
CUSAT 1 17 Jan 16:43:01 16:47:48 18° 278° (W) 16:52:25 437.405
CUBESAT XI-V 17 Jan 16:45:04 16:49:19 34° 97° (E) 16:53:32 437.345
AUBIESAT-1 17 Jan 16:45:59 16:49:21 90° 15° (NNE) 16:52:38 437.475
ITUPSAT 1 17 Jan 16:46:04 16:47:32 11° 297° (WNW) 16:48:59 437.325
BRITE-PL 17 Jan 16:49:53 16:55:31 82° 258° (WSW) 17:01:15 437.365/2234.400
DANDE 17 Jan 16:56:44 17:03:46 38° 270° (W) 17:11:15 436.750
O/OREOS (USA 219) 17 Jan 17:02:38 17:07:01 50° 68° (ENE) 17:11:24 437.305
Cosmos 2504 17 Jan 17:04:53 17:11:59 27° 287° (WNW) 17:18:51 435.465 / 435.565
BEESAT 2 17 Jan 17:08:35 17:11:59 29° 112° (ESE) 17:15:25 435.950
GOMX 1 17 Jan 17:11:24 17:16:50 68° 76° (ENE) 17:22:07 467.674
KKS-1 17 Jan 17:12:33 17:16:50 50° 286° (WNW) 17:21:05 437.445
CUTE-I 17 Jan 17:14:57 17:19:32 31° 69° (ENE) 17:24:07 437.470
HORYU 2 17 Jan 17:16:57 17:21:22 84° 257° (WSW) 17:25:48 437.375
HO-68 17 Jan 17:25:17 17:27:02 11° 54° (NE) 17:28:46 435.675
NOAA 18 17 Jan 17:34:30 17:39:02 27° 67° (ENE) 17:43:35 137.9125
M-CUBED/EXP-1 PRIME 17 Jan 17:42:36 17:43:50 12° 298° (WNW) 17:45:03 437.505
SO-50 17 Jan 17:43:56 17:48:15 45° 57° (ENE) 17:52:31 436.795
SRMSAT 17 Jan 17:51:26 17:54:29 14° 169° (S) 17:57:33 437.500
Cubesat XI-IV 17 Jan 17:56:10 18:01:29 78° 75° (ENE) 18:06:48 437.490
DOVE 4 17 Jan 18:07:45 18:12:55 81° 257° (WSW) 18:17:50 437.250
BEESAT 3 17 Jan 18:09:10 18:12:10 21° 308° (NW) 18:15:12 437.485
LilacSat-2 17 Jan 18:11:18 18:14:58 54° 260° (W) 18:18:41 437.200
STARS 17 Jan 18:15:46 18:19:09 22° 291° (WNW) 18:22:31 437.465
JUGNU 17 Jan 18:16:01 18:19:47 17° 185° (S) 18:23:35 437.505
NOAA 15 17 Jan 18:17:09 18:22:21 61° 259° (WSW) 18:27:37 137.62
CUBESAT XI-V 17 Jan 18:22:59 18:26:25 21° 292° (WNW) 18:29:51 437.345
CINEMA 3 17 Jan 18:24:24 18:28:23 31° 73° (ENE) 18:32:14 145.822/145.860
GONETS M04 17 Jan 18:35:53 18:36:58 10° 76° (ENE) 18:38:04
O/OREOS (USA 219) 17 Jan 18:44:11 18:45:55 12° 262° (W) 18:47:38 437.305
BEESAT 2 17 Jan 18:46:49 18:49:46 20° 308° (NW) 18:52:44 435.950
STRAND 1 17 Jan 18:48:42 18:52:20 19° 94° (E) 18:55:58 437.568
GOMX 1 17 Jan 18:52:47 18:55:12 13° 269° (W) 18:57:36 467.674
CUTE-I 17 Jan 18:54:59 18:59:29 28° 263° (W) 19:04:01 437.470
CUTE 1.7 + AOD 2 17 Jan 19:03:40 19:07:43 46° 74° (ENE) 19:11:48 437.475
HO-68 17 Jan 19:06:19 19:13:26 69° 72° (ENE) 19:20:35 435.675
NOAA 18 17 Jan 19:14:32 19:19:30 34° 262° (W) 19:24:29 137.9125
SO-50 17 Jan 19:25:45 19:28:17 15° 251° (WSW) 19:30:49 436.795
CANX-2 17 Jan 19:32:02 19:36:14 64° 260° (W) 19:40:28 2200.000
Cosmos 2499 17 Jan 19:32:41 19:40:37 43° 89° (E) 19:48:05 435.465 / 435.565
SRMSAT 17 Jan 19:38:56 19:42:57 18° 179° (S) 19:46:56 437.500
CUBEBUG 2 17 Jan 19:40:45 19:44:49 49° 75° (ENE) 19:48:50 437.445
Cubesat XI-IV 17 Jan 19:41:27 19:42:02 10° 269° (W) 19:42:38 437.490
Oscar 11 17 Jan 19:49:23 19:52:25 19° 69° (ENE) 19:55:28 145.826/435.025
SEEDS 17 Jan 19:49:56 19:54:07 71° 259° (W) 19:58:21 437.485
COMPASS 1 17 Jan 20:01:32 20:05:43 81° 259° (W) 20:09:56 437.405
CINEMA 3 17 Jan 20:02:16 20:05:30 19° 265° (W) 20:08:41 145.822/145.860
JUGNU 17 Jan 20:06:37 20:08:03 11° 195° (SSW) 20:09:29 437.505
AIST 2 17 Jan 20:14:39 20:18:41 64° 117° (ESE) 20:22:48 435.215
UWE-3 17 Jan 20:15:50 20:20:00 82° 77° (ENE) 20:24:08 435.000/436.395/437.385
AAUSAT CUBESAT 2 17 Jan 20:16:11 20:20:19 72° 259° (W) 20:24:30 437.432
FUNcube-1 17 Jan 20:20:49 20:24:45 46° 74° (ENE) 20:28:43 145.935
GONETS M04 17 Jan 20:23:30 20:32:07 74° 93° (E) 20:40:50
STRAND 1 17 Jan 20:26:49 20:31:37 42° 289° (WNW) 20:36:26 437.568
DELFI C3 17 Jan 20:28:05 20:30:31 16° 68° (ENE) 20:32:57 145.870
ZACube-1 17 Jan 20:41:49 20:45:57 84° 258° (WSW) 20:50:07 437.345
CUTE 1.7 + AOD 2 17 Jan 20:42:17 20:43:46 12° 268° (W) 20:45:14 437.475
HO-68 17 Jan 20:56:53 21:01:37 19° 267° (W) 21:06:24 435.675
HUMSAT D 17 Jan 21:20:58 21:24:42 36° 73° (ENE) 21:28:28 437.325/437.525
CUBEBUG 2 17 Jan 21:21:03 21:21:40 10° 268° (W) 21:22:17 437.445
Oscar 11 17 Jan 21:24:30 21:28:18 30° 263° (W) 21:32:09 145.826/435.025
Cosmos 2499 17 Jan 21:26:03 21:33:42 35° 284° (WNW) 21:40:58 435.465 / 435.565
SRMSAT 17 Jan 21:28:01 21:31:23 15° 189° (S) 21:34:47 437.500
TIGRISAT 17 Jan 21:30:32 21:32:34 13° 93° (E) 21:34:36 435.000
ANTELSAT 17 Jan 21:43:50 21:47:09 20° 95° (E) 21:50:28 437.575/2403.000
BY70-1 17 Jan 21:47:24 21:48:22 11° 67° (ENE) 21:49:22 436.1900
PRISM 17 Jan 21:48:11 21:52:19 85° 102° (ESE) 21:56:24 437.425
AIST 2 17 Jan 21:56:00 21:57:34 12° 313° (NW) 21:59:09 435.215
FUNcube-1 17 Jan 22:00:14 22:01:13 11° 268° (W) 22:02:13 145.935
DELFI C3 17 Jan 22:01:25 22:05:01 32° 263° (W) 22:08:39 145.870
GONETS M04 17 Jan 22:23:41 22:29:44 20° 292° (WNW) 22:35:51
ISS 17 Jan 22:41:51 22:44:55 39° 133° (SE) 22:47:59 145.825
CUBEBUG 1 17 Jan 22:42:06 22:45:33 23° 69° (ENE) 22:49:00 437.445
JAS-2 17 Jan 22:42:42 22:49:19 37° 98° (E) 22:56:21 435.910
UNISAT 6 17 Jan 22:50:44 22:55:07 64° 285° (WNW) 22:59:35 437.425
AISAT 17 Jan 22:50:47 22:53:51 19° 68° (ENE) 22:56:57 437.250
HUMSAT D 17 Jan 22:58:15 23:00:25 14° 267° (W) 23:02:36 437.325/437.525
ESTCUBE 1 17 Jan 22:58:15 23:02:43 62° 75° (ENE) 23:07:12 437.505/2401.250
TIGRISAT 17 Jan 23:05:11 23:09:26 47° 286° (WNW) 23:13:44 435.000
BY70-1 17 Jan 23:16:13 23:18:28 21° 265° (W) 23:20:51 436.1900
ANTELSAT 17 Jan 23:19:57 23:23:49 30° 288° (WNW) 23:27:45 437.575/2403.000
QB50P1 17 Jan 23:20:54 23:24:08 21° 96° (E) 23:27:23 145.935-145.965
VELOX 1 17 Jan 23:23:06 23:27:15 40° 73° (ENE) 23:31:26 145.980
POLYITAN 1 17 Jan 23:23:55 23:27:20 23° 96° (E) 23:30:45 437.675
QB50P2 17 Jan 23:24:57 23:28:29 26° 97° (E) 23:32:02 145.880/145.840
AO-85 17 Jan 23:27:27 23:30:52 28° 55° (NE) 23:34:17 145.980
50 SAT 17 Jan 23:36:46 23:40:05 39° 74° (ENE) 23:43:27 437.505
RS-15 17 Jan 23:46:11 23:57:36 62° 111° (ESE) 00:09:33 29.354- 29.394
POPSAT HIP 1 17 Jan 23:46:52 23:50:53 43° 99° (E) 23:54:55 437.405
PCSat 17 Jan 23:58:22 23:59:42 11° 102° (ESE) 00:01:03 145.827
DUCHIFAT 1 18 Jan 00:01:27 00:05:35 56° 101° (E) 00:09:42 145.980
DX 1 18 Jan 00:05:06 00:09:23 58° 75° (ENE) 00:13:42 434.975-435.025
NANOSAT C BR1 18 Jan 00:05:20 00:09:32 71° 102° (ESE) 00:13:43 145.865
UKube-1 18 Jan 00:10:25 00:14:33 47° 73° (ENE) 00:18:43 .
SPROUT 18 Jan 00:14:20 00:18:35 69° 259° (W) 00:22:49 437.525
CUBEBUG 1 18 Jan 00:17:55 00:21:39 27° 263° (W) 00:25:25 437.445
ISS 18 Jan 00:19:07 00:21:31 19° 329° (NNW) 00:23:55 145.825
TISAT 1 18 Jan 00:19:09 00:21:44 16° 68° (ENE) 00:24:17 437.305
AISAT 18 Jan 00:26:00 00:30:03 34° 262° (W) 00:34:06 437.250
JAS-2 18 Jan 00:27:39 00:34:11 41° 290° (WNW) 00:41:15 435.910
BUGSAT 1 18 Jan 00:48:20 00:52:21 70° 101° (ESE) 00:56:23 437.445
Oscar 19 18 Jan 00:50:41 00:54:06 18° 94° (E) 00:57:30 437.125/150
QB50P1 18 Jan 00:56:21 00:59:49 25° 289° (WNW) 01:03:18 145.935-145.965
POLYITAN 1 18 Jan 00:59:38 01:03:00 23° 290° (WNW) 01:06:22 437.675
QB50P2 18 Jan 01:00:54 01:04:07 21° 290° (WNW) 01:07:19 145.880/145.840
VELOX 1 18 Jan 01:01:16 01:03:50 15° 266° (W) 01:06:25 145.980
AO-85 18 Jan 01:08:22 01:11:01 18° 249° (WSW) 01:13:40 145.980
Cosmos 2504 18 Jan 01:09:49 01:13:07 13° 66° (ENE) 01:16:22 435.465 / 435.565
BEESAT 18 Jan 01:10:45 01:12:53 13° 64° (ENE) 01:15:00 436.000
SWISSCUBE 18 Jan 01:11:28 01:14:08 15° 65° (ENE) 01:16:48 437.505
POPSAT HIP 1 18 Jan 01:24:14 01:26:15 13° 293° (WNW) 01:28:17 437.405
PCSat 18 Jan 01:36:56 01:42:20 78° 297° (WNW) 01:47:47 145.827
AIST 1 18 Jan 01:37:46 01:41:59 60° 81° (E) 01:46:10
DUCHIFAT 1 18 Jan 01:40:06 01:40:44 10° 295° (WNW) 01:41:20 145.980
UKube-1 18 Jan 01:49:05 01:50:48 12° 267° (W) 01:52:30 .
YUBILEINY 18 Jan 01:51:21 02:00:08 65° 81° (E) 02:08:47 435.215
TISAT 1 18 Jan 01:53:13 01:57:02 34° 261° (W) 02:00:52 437.305
RS-15 18 Jan 01:59:44 02:10:40 40° 314° (NW) 02:22:02 29.354- 29.394
ITUPSAT 1 18 Jan 02:08:52 02:13:29 54° 73° (ENE) 02:18:08 437.325
Gurwin Techsat 1B 18 Jan 02:19:10 02:24:30 73° 103° (ESE) 02:29:47 435.225
AO-7 18 Jan 02:19:14 02:21:43 11° 90° (E) 02:24:11 29.400- 29.500
BEESAT 3 18 Jan 02:27:51 02:31:51 76° 60° (ENE) 02:35:49 437.485
Oscar 19 18 Jan 02:28:41 02:33:36 45° 288° (WNW) 02:38:29 437.125/150
Cosmos 2491 18 Jan 02:34:20 02:42:58 73° 93° (E) 02:51:38 435.465 / 435.565
BEESAT 18 Jan 02:45:27 02:50:07 58° 259° (W) 02:54:48 436.000
SWISSCUBE 18 Jan 02:46:52 02:51:27 49° 260° (W) 02:56:05 437.505
PHONESAT 2.4 18 Jan 02:47:58 02:50:12 44° 153° (SSE) 02:52:26 2401.200-2431.200
M-CUBED/EXP-1 PRIME 18 Jan 02:48:48 02:52:40 29° 67° (ENE) 02:56:20 437.505
Cosmos 2504 18 Jan 03:00:06 03:07:31 86° 265° (W) 03:14:40 435.465 / 435.565
ITAMSAT 1 18 Jan 03:05:11 03:10:00 37° 98° (E) 03:14:48 435.822/435.867
BEESAT 2 18 Jan 03:06:15 03:10:18 86° 62° (ENE) 03:14:19 435.950
MOZHAYETS 4 18 Jan 03:06:26 03:10:55 63° 75° (ENE) 03:15:28
PCSat 18 Jan 03:25:13 03:26:36 11° 315° (NW) 03:28:00 145.827
AUBIESAT-1 18 Jan 03:27:25 03:31:48 64° 71° (ENE) 03:35:55 437.475
STARS 18 Jan 03:33:30 03:36:17 17° 67° (ENE) 03:39:04 437.465
CUBESAT XI-V 18 Jan 03:45:23 03:49:05 23° 69° (ENE) 03:52:47 437.345
ITUPSAT 1 18 Jan 03:49:31 03:51:35 13° 267° (W) 03:53:40 437.325
YUBILEINY 18 Jan 03:49:41 03:56:05 23° 278° (W) 04:02:27 435.215
CUSAT 1 18 Jan 03:56:45 04:01:13 84° 278° (W) 04:07:13 437.405
Gurwin Techsat 1B 18 Jan 04:01:34 04:03:46 13° 297° (WNW) 04:05:57 435.225
KKS-1 18 Jan 04:06:45 04:11:12 85° 255° (WSW) 04:15:41 437.445
AO-7 18 Jan 04:07:09 04:15:33 77° 106° (ESE) 04:23:52 29.400- 29.500
DANDE 18 Jan 04:20:44 04:23:45 31° 89° (E) 04:27:34 436.750
RS-15 18 Jan 04:21:46 04:28:14 15° 346° (NNW) 04:34:46 29.354- 29.394
PHONESAT 2.4 18 Jan 04:22:23 04:24:26 27° 348° (NNW) 04:26:29 2401.200-2431.200
M-CUBED/EXP-1 PRIME 18 Jan 04:23:27 04:27:01 23° 258° (WSW) 04:30:28 437.505
Cosmos 2491 18 Jan 04:34:27 04:40:34 21° 291° (WNW) 04:46:43 435.465 / 435.565
AIST 2 18 Jan 04:39:49 04:42:40 17° 50° (NE) 04:45:31 435.215
ITAMSAT 1 18 Jan 04:45:11 04:49:12 23° 293° (WNW) 04:53:13 435.822/435.867
Cosmos 2504 18 Jan 04:58:36 04:59:32 10° 282° (WNW) 05:00:28 435.465 / 435.565
BRITE-PL 18 Jan 04:59:19 05:03:56 41° 97° (E) 05:08:12 437.365/2234.400
STARS 18 Jan 05:08:15 05:12:18 37° 261° (W) 05:16:23 437.465
HORYU 2 18 Jan 05:11:38 05:15:11 23° 96° (E) 05:18:44 437.375
ISS 18 Jan 05:13:00 05:14:56 15° 29° (NNE) 05:16:53 145.825
GOMX 1 18 Jan 05:18:07 05:21:34 22° 94° (E) 05:24:51 467.674
CUBESAT XI-V 18 Jan 05:22:11 05:26:15 29° 263° (W) 05:30:22 437.345
CUTE-I 18 Jan 05:36:11 05:39:19 16° 93° (E) 05:42:27 437.470
LilacSat-2 18 Jan 05:48:22 05:51:11 19° 95° (E) 05:54:00 437.200
PHONESAT 2.4 18 Jan 05:57:09 05:58:59 20° 4° (N) 06:00:49 2401.200-2431.200
NOAA 18 18 Jan 06:00:58 06:03:43 14° 93° (E) 06:06:27 137.9125
AO-7 18 Jan 06:01:29 06:07:24 22° 303° (WNW) 06:13:18 29.400- 29.500
STRAND 1 18 Jan 06:01:39 06:05:20 20° 67° (ENE) 06:09:00 437.568
DANDE 18 Jan 06:05:36 06:06:55 11° 297° (WNW) 06:08:21 436.750
DOVE 4 18 Jan 06:10:43 06:14:26 31° 97° (E) 06:18:06 437.250
Cubesat XI-IV 18 Jan 06:16:56 06:21:57 40° 99° (E) 06:26:56 437.490
AIST 2 18 Jan 06:17:19 06:21:18 41° 246° (WSW) 06:25:16 435.215
NOAA 15 18 Jan 06:35:33 06:40:52 67° 102° (ESE) 06:46:07 137.62
GONETS M04 18 Jan 06:38:28 06:46:04 31° 73° (ENE) 06:53:37
BRITE-PL 18 Jan 06:38:51 06:41:58 17° 295° (WNW) 06:44:58 437.365/2234.400
RS-15 18 Jan 06:40:17 06:48:15 19° 24° (NNE) 06:56:06 29.354- 29.394
HO-68 18 Jan 06:40:22 06:43:56 14° 91° (E) 06:47:27 435.675
HORYU 2 18 Jan 06:47:56 06:51:39 27° 290° (WNW) 06:55:22 437.375
ISS 18 Jan 06:48:28 06:51:41 62° 225° (SW) 06:54:53 145.825
CUTE 1.7 + AOD 2 18 Jan 06:54:33 06:55:22 10° 91° (E) 06:56:09 437.475
GOMX 1 18 Jan 06:55:58 06:59:36 25° 290° (WNW) 07:03:05 467.674
O/OREOS (USA 219) 18 Jan 07:11:23 07:15:50 71° 290° (WNW) 07:20:19 437.305
CUTE-I 18 Jan 07:14:27 07:19:38 54° 287° (WNW) 07:24:49 437.470
CANX-2 18 Jan 07:20:38 07:24:19 27° 96° (E) 07:27:58 2200.000
LilacSat-2 18 Jan 07:22:17 07:25:23 23° 289° (WNW) 07:28:29 437.200
